Airfield :
LOGIN :

Register | Disclaimer

   EN    FR    IT 

 










Legend :    VFR   Marginal VFR   IFR   Intensive IFR   Very Intensive IFR
Visi :
Ceiling :
>= 8 km
>= 3000ft
5 to 8 km
1000 to 3000 ft
1500m to 5 km
500 to 1000 ft
800 to 1500m
200 to 500 ft
< 800m
< 200 ft
Symbols :   Thunderstorms  Fog  Heavy snow  Heavy precipitations  Wind > 20 kt
SIGMETs :     Misc.  Thunderstorms  Icing  Turbulence  Mountain Waves  Volcanic Ashes






- Airport Elevation : 182 ft
- IATA code : KCO


LTBQ - Cengiz Topel

CURRENT METAR :
  • 281050Z 30003KT 9999 FEW027TCU BKN030 18/11 Q1016 NOSIG

EXPIRED METARs :
  • 280950Z 29005KT 8000 FEW027TCU BKN030 16/11 Q1016 NOSIG
  • 280850Z 25005KT 180V310 8000 BKN030 BKN070 16/11 Q1016 NOSIG

TAF TAF LTBQ
Valid from the 28 at 09:00 until the 28 at 18:00 UTC


280740Z 2809/2818 27009KT 7000 BKN025 BKN070
TEMPO 2809/2811 -SHRA
TEMPO 2811/2815 -SHRA FEW020CB BKN025
PROB40
TEMPO 2815/2817 -SHRA



MET'MAP, your aeronautical weather chart ! - Copyright ORBIFLY December 2007 - Disclaimer

ORBIFLY MET'MAP TEAM :

Programming & Development : Alexandra Zaïnal
Concept & original design : Baudouin d'Aumeries
Assistance for programming : Marc-Olivier Méhu
Technical & hardware support : Manuel Goepfert

Contact : metmap@orbifly.com




SOURCES & CREDITS :

   NOAA